Tracking 25620 objects as of 18-May-2022
HD Live streaming from Space Station
objects crossing your sky now

ZHEDA PIXING 1C

Track ZHEDA PIXING 1C now!
10-day predictions
ZHEDA PIXING 1C is classified as:


NORAD ID: 37167
Int'l Code: 2010-047C
Perigee: 615.3 km
Apogee: 649.0 km
Inclination: 97.8 °
Period: 97.2 minutes
Semi major axis: 7003 km
RCS: 0.149 m2 (medium)
Launch date: September 22, 2010
Source: People's Republic of China (PRC)
Launch site: Jiuquan Satellite Launch Center, China (JSC)
aabbcc
Your satellite tracking list
Your tracking list is empty




NASA's NSSDC Master Catalog

Two Line Element Set (TLE):
1 37167U 10047C   22138.49467754  .00001231  00000-0  16336-3 0  9997
2 37167  97.7868 112.6624 0024083 128.7864 231.5506 14.81372067629363
Source of the keplerian elements: AFSPC